Chios, Greece

2:06 PM EEST on March 26, 2017 (GMT +0300)
Chios

Weather History for LGHI - October, 2012

Change the Weather History Date:

Friday, October 12, 2012

  Actual Average (LTBL) Record (LTBL)
Temperature  
Mean Temperature 65 °F -  
Max Temperature 77 °F 75 °F 87 °F (2001)
Min Temperature 53 °F 55 °F 50 °F (2003)
Growing Degree Days 15 (Base 50)    
Moisture  
Dew Point 55 °F    
Average Humidity 70    
Maximum Humidity 83    
Minimum Humidity 41    
Precipitation  
Precipitation 0.00 in - - ()
Sea Level Pressure  
Sea Level Pressure 30.01 in    
Wind  
Wind Speed 2 mph ()    
Max Wind Speed 8 mph    
Max Gust Speed -    
Averages and records for this station are not official NWS values.
T = Trace of Precipitation, MM = Missing Value Source: Averaged Metar Reports

Daily Weather History Graph

Daily Weather History Graph

Search for Another Location

Airport or City:

Trip Planner

Search our weather history database for the weather conditions in past years. The results will help you decide how hot, cold, wet, or windy it might be!

Date:

Astronomy

Oct. 12, 2012 Rise Set
Actual Time 7:21 AM EEST 6:41 PM EEST
Civil Twilight 6:55 AM EEST 7:08 PM EEST
Nautical Twilight 6:24 AM EEST 7:38 PM EEST
Astronomical Twilight 5:53 AM EEST 8:09 PM EEST
Moon 3:46 AM EEST (10/12) 4:38 PM EEST (10/12)
Length of Visible Light 12h 13m
Length of Day
11h 19m
Waning Crescent, 13% of the Moon is Illuminated
Oct 12
Waning Crescent
Oct 15
New
Oct 22
First Quarter
Oct 29
Full
Nov 7
Last Quarter

Hourly Weather History & Observations

Time (EEST) Temp. Dew Point Humidity Pressure Visibility Wind Dir Wind Speed Gust Speed Precip Events Conditions
2:50 AM 53.6 °F 46.4 °F 77% 29.98 in - Calm Calm - N/A   Clear
4:50 AM 53.6 °F 46.4 °F 77% 29.98 in - Calm Calm - N/A   Clear
5:50 AM 53.6 °F 46.4 °F 77% 29.98 in - Calm Calm - N/A   Clear
6:50 AM 53.6 °F 46.4 °F 77% 30.01 in - SSW 3.5 mph - N/A   Clear
7:50 AM 53.6 °F 46.4 °F 77% 30.01 in - SSW 3.5 mph - N/A   Clear
8:50 AM 59.0 °F 48.2 °F 67% 30.01 in - SSW 2.3 mph - N/A   Clear
9:50 AM 68.0 °F 50.0 °F 52% 30.01 in - SSW 3.5 mph - N/A   Clear
10:50 AM 68.0 °F 51.8 °F 56% 30.04 in - NE 3.5 mph - N/A   Clear
11:50 AM 71.6 °F 57.2 °F 60% 30.01 in - ENE 2.3 mph - N/A   Clear
12:50 PM 71.6 °F 55.4 °F 57% 30.01 in - East 2.3 mph - N/A   Clear
1:50 PM 77.0 °F 51.8 °F 41% 30.01 in - ESE 3.5 mph - N/A   Clear
2:50 PM 77.0 °F 55.4 °F 47% 30.01 in - South 8.1 mph - N/A   Clear
3:50 PM 77.0 °F 69.8 °F 78% 30.01 in - SW 6.9 mph - N/A   Clear
4:50 PM 75.2 °F 69.8 °F 83% 30.01 in - SSW 6.9 mph - N/A   Clear
5:50 PM 75.2 °F 69.8 °F 83% 30.01 in - Calm Calm - N/A   Clear
6:50 PM 71.6 °F 64.4 °F 78% 30.01 in - Variable 2.3 mph - N/A   Clear
7:50 PM 68.0 °F 59.0 °F 73% 30.04 in - Calm Calm - N/A   Clear
8:50 PM 64.4 °F 57.2 °F 77% 30.04 in - Variable 1.2 mph - N/A   Clear
9:50 PM 60.8 °F 53.6 °F 77% 30.04 in - Variable 2.3 mph - N/A   Clear
10:50 PM 59.0 °F 51.8 °F 77% 30.04 in - Calm Calm - N/A   Clear
11:50 PM 59.0 °F 51.8 °F 77% 30.04 in - Calm Calm - N/A   Clear